Wind_Speed
30 34 35 31 28 29 28 27 27 25 22 18 16 18 16 14 13 12 13 13 12 11 10 10 10 11 14 16 16 15 18 20
33 34 37 33 31 29 28 29 29 27 22 17 17 16 14 11 10 10 12 12 12 12 11 10 10 9 11 10 13 13 16 18
35 31 34 34 33 32 31 31 31 27 22 18 16 13 11 9 9 10 11 12 13 13 12 11 10 11 12 11 10 12 13 15
37 37 36 38 36 35 34 32 30 26 22 17 12 9 7 8 9 11 12 12 13 14 15 14 11 11 12 12 11 11 14 16
35 37 33 37 40 37 33 32 30 26 20 15 10 6 7 9 11 12 14 14 14 14 15 15 15 12 12 12 11 11 13 16
34 37 37 41 41 37 31 31 29 24 18 12 7 6 7 10 12 13 15 16 15 14 14 15 14 13 12 11 11 12 12 15
34 34 38 42 42 37 30 30 27 21 15 11 8 7 7 10 12 13 14 13 13 14 13 11 13 13 11 12 12 13 12 13
37 30 39 42 39 33 28 29 24 19 15 12 8 6 8 11 12 13 12 11 11 12 12 12 13 11 11 12 13 14 13 12
27 25 34 33 30 30 31 30 24 20 15 11 7 5 8 9 12 13 10 10 10 11 11 12 12 11 11 12 13 16 14 12
23 23 27 32 33 34 33 26 21 17 12 9 5 6 8 10 12 11 9 9 11 11 9 10 9 9 10 11 13 17 15 13
19 20 26 30 33 37 30 22 18 15 11 7 4 6 8 10 10 7 7 7 8 5 7 9 6 6 6 7 11 16 15 14
19 22 23 28 35 31 23 20 18 14 9 5 3 5 8 8 8 5 5 4 2 2 6 6 5 5 6 8 10 12 13 13
18 18 22 30 32 26 21 19 16 11 7 5 2 6 8 8 8 6 5 3 2 3 5 6 4 4 6 8 11 12 11 10
14 19 25 32 28 23 21 18 13 8 7 4 2 6 6 8 8 7 4 4 5 6 7 6 4 4 5 7 10 11 10 9
20 26 35 32 28 23 20 17 10 8 7 5 1 6 6 9 10 6 2 3 9 9 8 7 5 6 6 5 7 9 8 8
24 31 36 31 26 22 19 14 10 8 9 5 1 4 6 7 9 5 3 6 9 10 9 5 5 5 4 3 4 8 6 5
27 34 33 29 23 20 17 12 11 8 8 5 2 4 6 6 10 7 4 7 9 10 8 5 3 4 2 2 3 4 5 6
27 34 32 25 20 18 16 12 10 9 8 5 3 2 6 6 7 7 4 7 10 9 7 6 2 3 3 3 3 3 5 7
30 34 29 22 20 19 16 13 12 10 8 7 3 1 5 4 4 2 3 6 10 9 7 6 3 4 4 5 6 6 6 6
30 33 29 24 22 21 16 14 12 9 8 6 5 1 3 3 3 3 3 8 9 8 5 6 7 6 7 9 9 9 7 5
Wind_Direction
223 225 223 232 230 225 225 221 220 222 224 239 260 275 278 273 268 270 267 269 286 272 282 261 258 251 249 254 256 252 239 238
236 232 231 232 231 231 228 223 221 221 225 239 257 271 270 270 271 272 270 273 273 267 269 266 256 257 261 270 257 253 241 238
251 244 241 235 235 233 229 224 223 221 228 237 260 268 270 278 275 278 279 275 269 261 264 258 255 257 258 260 261 249 239 231
252 236 242 234 238 236 231 229 224 222 227 244 260 257 272 277 286 283 277 277 269 260 257 254 258 261 253 255 262 249 237 231
250 251 250 243 239 234 234 231 222 218 227 244 250 252 276 289 291 283 276 274 272 261 259 250 249 258 255 250 258 248 243 228
269 259 250 241 236 233 233 226 216 215 229 238 233 245 280 304 296 289 279 273 270 263 259 252 247 255 254 250 258 246 243 230
286 265 248 243 235 232 230 220 209 216 222 219 224 243 287 306 302 293 277 272 273 267 263 258 244 246 251 252 251 239 233 227
297 275 248 239 233 232 225 207 204 210 211 211 224 265 292 307 311 301 280 277 278 269 266 248 236 242 250 250 246 230 223 220
291 279 250 238 228 219 205 199 203 209 206 208 228 281 300 307 314 302 285 283 283 279 265 240 232 244 253 247 239 218 210 205
279 265 245 236 223 204 198 198 206 205 199 213 240 288 311 313 317 303 286 291 291 275 252 223 234 243 252 249 226 199 198 196
266 242 229 221 204 195 188 194 201 193 195 211 255 304 325 323 321 308 298 300 296 267 219 214 227 239 247 212 191 188 195 195
243 228 216 203 190 181 182 190 189 187 195 208 256 325 346 337 335 321 304 307 306 166 183 204 208 212 201 175 172 182 190 195
246 223 200 183 176 174 180 182 181 186 194 205 286 344 342 343 337 324 286 287 189 189 174 171 176 189 172 176 175 179 192 210
209 195 175 168 169 175 176 179 174 178 191 200 325 352 348 347 347 328 281 254 197 171 155 143 141 147 163 175 178 187 194 209
179 169 166 167 173 176 178 175 171 175 180 189 319 357 354 348 348 339 294 169 178 168 148 138 134 122 113 131 177 189 206 215
171 169 168 171 177 176 176 174 174 177 175 182 155 4 1 352 359 17 97 143 163 166 159 144 153 119 110 116 176 191 194 231
171 170 170 175 175 176 175 172 173 175 173 184 162 42 15 17 27 32 116 144 161 169 165 166 156 159 135 116 158 201 227 210
169 172 173 174 175 173 169 174 171 170 174 169 131 17 18 35 41 46 95 149 163 170 171 175 131 136 131 134 155 181 179 183
170 172 174 172 171 175 173 175 172 172 172 175 179 18 14 23 32 71 100 149 162 163 169 183 167 133 121 112 116 102 125 144
171 172 172 172 174 177 182 178 177 174 172 177 168 190 5 14 25 121 106 157 161 165 171 164 143 123 107 99 94 91 94 109
Height
1471 1471 1472 1471 1475 1478 1479 1481 1483 1485 1487 1489 1491 1492 1491 1490 1489 1488 1488 1487 1487 1487 1486 1486 1486 1486 1486 1486 1486 1486 1488 1489
1468 1465 1466 1468 1470 1472 1475 1477 1480 1483 1485 1486 1488 1488 1488 1487 1486 1485 1484 1484 1484 1484 1484 1484 1483 1483 1483 1483 1483 1484 1485 1486
1462 1460 1461 1464 1465 1468 1470 1473 1475 1480 1482 1484 1484 1485 1485 1483 1482 1482 1481 1480 1480 1480 1480 1481 1481 1481 1481 1481 1481 1482 1482 1484
1457 1456 1455 1457 1460 1464 1468 1471 1475 1478 1480 1482 1481 1481 1481 1480 1480 1479 1478 1477 1477 1476 1477 1477 1477 1478 1478 1478 1478 1479 1480 1482
1450 1449 1449 1450 1453 1460 1464 1468 1472 1475 1478 1479 1478 1478 1478 1478 1477 1475 1474 1473 1473 1473 1472 1473 1473 1474 1474 1475 1476 1476 1477 1479
1442 1442 1444 1445 1450 1456 1461 1465 1469 1473 1475 1475 1475 1476 1475 1475 1473 1472 1471 1470 1469 1468 1469 1469 1470 1470 1470 1471 1472 1473 1475 1477
1433 1434 1437 1439 1445 1451 1457 1461 1466 1471 1471 1473 1473 1474 1473 1472 1470 1469 1467 1466 1465 1465 1465 1465 1466 1466 1467 1468 1469 1471 1473 1475
1425 1428 1430 1434 1441 1448 1454 1459 1464 1467 1469 1470 1471 1470 1470 1469 1467 1465 1464 1463 1461 1461 1461 1462 1463 1463 1464 1465 1467 1469 1472 1474
1417 1420 1425 1431 1438 1444 1449 1455 1460 1463 1465 1467 1468 1467 1467 1466 1464 1462 1461 1460 1458 1458 1458 1459 1460 1461 1462 1463 1464 1467 1470 1473
1413 1415 1420 1424 1430 1437 1445 1453 1458 1460 1463 1464 1464 1465 1464 1463 1461 1459 1458 1457 1455 1454 1455 1456 1458 1459 1460 1460 1461 1465 1469 1472
1408 1411 1414 1419 1426 1434 1442 1451 1455 1458 1460 1461 1462 1462 1462 1460 1459 1457 1455 1454 1452 1452 1453 1455 1457 1458 1458 1459 1460 1464 1468 1471
1404 1407 1411 1417 1426 1436 1443 1449 1453 1457 1458 1459 1460 1461 1460 1458 1456 1455 1453 1452 1452 1452 1453 1455 1456 1457 1458 1459 1462 1465 1468 1471
1403 1405 1410 1419 1429 1436 1442 1448 1452 1454 1456 1458 1459 1459 1459 1457 1455 1453 1452 1451 1452 1452 1454 1455 1457 1458 1458 1460 1462 1465 1468 1470
1401 1407 1414 1423 1431 1436 1442 1447 1450 1453 1455 1457 1458 1458 1457 1456 1454 1452 1450 1450 1451 1453 1455 1456 1458 1459 1460 1461 1463 1466 1468 1470
1400 1406 1414 1423 1430 1436 1441 1446 1448 1451 1454 1456 1457 1458 1456 1455 1453 1450 1449 1449 1452 1454 1456 1458 1459 1460 1461 1462 1464 1466 1468 1470
1401 1407 1414 1423 1430 1435 1440 1445 1448 1450 1453 1456 1457 1457 1456 1455 1452 1449 1449 1450 1453 1456 1458 1459 1461 1461 1463 1464 1465 1466 1468 1469
1401 1409 1416 1423 1429 1435 1440 1444 1447 1450 1453 1455 1456 1456 1456 1454 1452 1450 1451 1452 1454 1457 1459 1460 1462 1463 1464 1465 1466 1466 1468 1469
1403 1411 1417 1424 1430 1435 1440 1444 1446 1449 1452 1454 1456 1456 1456 1454 1453 1452 1452 1453 1456 1458 1459 1461 1462 1463 1465 1465 1466 1466 1467 1468
1403 1411 1419 1424 1430 1436 1440 1443 1446 1449 1452 1454 1455 1456 1456 1455 1453 1453 1454 1455 1456 1458 1460 1462 1463 1464 1465 1466 1467 1466 1467 1469
1404 1411 1418 1424 1429 1435 1439 1442 1445 1448 1451 1453 1455 1456 1456 1455 1453 1454 1454 1455 1457 1459 1461 1462 1464 1465 1466 1467 1468 1468 1469 1469